Weather History for Woodward, OK

Change the Weather History Date:

Friday, February 21, 2014

  Actual Average (KGAG) Record (KGAG)
Temperature  
Mean Temperature 44 °F -  
Max Temperature 62 °F 52 °F 79 °F (1977)
Min Temperature 26 °F 27 °F 2 °F (1978)
Degree Days  
Heating Degree Days 21    
Moisture  
Dew Point 11 °F    
Average Humidity 31    
Maximum Humidity 59    
Minimum Humidity 10    
Precipitation  
Precipitation 0.00 in - - ()
Sea Level Pressure  
Sea Level Pressure 29.98 in    
Wind  
Wind Speed 11 mph (SSW)    
Max Wind Speed 26 mph    
Max Gust Speed 33 mph    
Visibility 10 miles    
Events      
Averages and records for this station are not official NWS values.
T = Trace of Precipitation, MM = Missing Value Source: NWS Daily Summary

Daily Weather History Graph

Daily Weather History Graph

Search for Another Location

Airport:

Trip Planner

Search our weather history database for the weather conditions in past years. The results will help you decide how hot, cold, wet, or windy it might be!

Date:

Astronomy

Feb. 21, 2014 Rise Set
Actual Time 7:18 AM CST 6:25 PM CST
Civil Twilight 6:52 AM CST 6:51 PM CST
Nautical Twilight 6:22 AM CST 7:21 PM CST
Astronomical Twilight 5:52 AM CST 7:51 PM CST
Moon 12:09 AM CST (2/21) 10:55 AM CST (2/21)
Length of Visible Light 11h 58m
Length of Day
11h 06m
Waning Gibbous, 60% of the Moon is Illuminated
Feb 21
Waning Gibbous
Feb 22
Last Quarter
Mar 1
New
Mar 8
First Quarter
Mar 16
Full

Hourly Weather History & Observations

Time (CST) Temp. Windchill Dew Point Humidity Pressure Visibility Wind Dir Wind Speed Gust Speed Precip Events Conditions
12:15 AM 30.2 °F 21.9 °F 14.0 °F 51% 30.09 in 10.0 mi SW 9.2 mph - N/A   Clear
12:35 AM 30.2 °F 21.3 °F 15.8 °F 55% 30.08 in 10.0 mi SSW 10.4 mph - N/A   Clear
12:55 AM 30.2 °F 21.3 °F 14.0 °F 51% 30.08 in 10.0 mi SW 10.4 mph - N/A   Clear
1:15 AM 32.0 °F 22.5 °F 14.0 °F 48% 30.08 in 10.0 mi SW 12.7 mph - N/A   Clear
1:35 AM 30.2 °F 21.3 °F 14.0 °F 51% 30.07 in 10.0 mi SW 10.4 mph - N/A   Clear
1:55 AM 30.2 °F 21.3 °F 14.0 °F 51% 30.07 in 10.0 mi SW 10.4 mph - N/A   Clear
2:15 AM 28.4 °F 19.1 °F 14.0 °F 55% 30.06 in 10.0 mi SW 10.4 mph - N/A   Clear
2:35 AM 28.4 °F 19.1 °F 14.0 °F 55% 30.06 in 10.0 mi SW 10.4 mph - N/A   Clear
2:55 AM 28.4 °F 18.5 °F 14.0 °F 55% 30.05 in 10.0 mi SW 11.5 mph - N/A   Clear
3:15 AM 26.6 °F 17.5 °F 14.0 °F 59% 30.05 in 10.0 mi SW 9.2 mph - N/A   Clear
3:35 AM 26.6 °F 16.8 °F 14.0 °F 59% 30.04 in 10.0 mi SW 10.4 mph - N/A   Clear
3:55 AM 26.6 °F 19.1 °F 14.0 °F 59% 30.03 in 10.0 mi SW 6.9 mph - N/A   Clear
4:15 AM 26.6 °F 17.5 °F 14.0 °F 59% 30.03 in 10.0 mi WSW 9.2 mph - N/A   Clear
4:35 AM 26.6 °F 17.5 °F 14.0 °F 59% 30.03 in 10.0 mi SW 9.2 mph - N/A   Clear
4:55 AM 28.4 °F 19.1 °F 14.0 °F 55% 30.02 in 10.0 mi SW 10.4 mph - N/A   Clear
5:15 AM 28.4 °F 19.1 °F 14.0 °F 55% 30.02 in 10.0 mi SSW 10.4 mph - N/A   Clear
5:35 AM 26.6 °F 16.8 °F 14.0 °F 59% 30.02 in 10.0 mi SW 10.4 mph - N/A   Clear
5:55 AM 32.0 °F 23.0 °F 14.0 °F 48% 30.02 in 10.0 mi SSW 11.5 mph - N/A   Clear
6:15 AM 32.0 °F 23.6 °F 14.0 °F 48% 30.01 in 10.0 mi SSW 10.4 mph - N/A   Clear
6:35 AM 32.0 °F 23.6 °F 14.0 °F 48% 30.01 in 10.0 mi SSW 10.4 mph - N/A   Clear
6:55 AM 32.0 °F 23.6 °F 14.0 °F 48% 30.00 in 10.0 mi SSW 10.4 mph - N/A   Clear
7:15 AM 30.2 °F 21.3 °F 14.0 °F 51% 30.00 in 10.0 mi SSW 10.4 mph - N/A   Clear
7:35 AM 32.0 °F 22.1 °F 14.0 °F 48% 30.01 in 10.0 mi SW 13.8 mph - N/A   Clear
7:55 AM 32.0 °F 22.5 °F 14.0 °F 48% 30.02 in 10.0 mi SW 12.7 mph - N/A   Clear
8:15 AM 33.8 °F 25.3 °F 14.0 °F 44% 30.02 in 10.0 mi SW 11.5 mph - N/A   Clear
8:35 AM 37.4 °F 29.3 °F 14.0 °F 38% 30.02 in 10.0 mi SW 12.7 mph - N/A   Clear
8:55 AM 41.0 °F 33.1 °F 12.2 °F 31% 30.02 in 10.0 mi SSW 15.0 mph 20.7 mph N/A   Clear
9:15 AM 44.6 °F 37.2 °F 12.2 °F 27% 30.02 in 10.0 mi SW 17.3 mph 21.9 mph N/A   Clear
9:35 AM 46.4 °F 39.5 °F 10.4 °F 23% 30.02 in 10.0 mi SW 17.3 mph 21.9 mph N/A   Clear
9:55 AM 46.4 °F 38.3 °F 10.4 °F 23% 30.01 in 10.0 mi SSW 23.0 mph 31.1 mph N/A   Clear
10:15 AM 50.0 °F - 10.4 °F 20% 30.01 in 10.0 mi SSW 23.0 mph 29.9 mph N/A   Clear
10:35 AM 51.8 °F - 10.4 °F 19% 30.00 in 10.0 mi SSW 24.2 mph 33.4 mph N/A   Clear
10:55 AM 53.6 °F - 10.4 °F 18% 29.99 in 10.0 mi SSW 26.5 mph 33.4 mph N/A   Clear
11:15 AM 53.6 °F - 10.4 °F 18% 30.00 in 10.0 mi SW 26.5 mph 31.1 mph N/A   Clear
11:35 AM 55.4 °F - 12.2 °F 18% 29.99 in 10.0 mi SSW 18.4 mph 29.9 mph N/A   Clear
11:55 AM 55.4 °F - 10.4 °F 17% 29.99 in 10.0 mi SSW 20.7 mph 27.6 mph N/A   Clear
12:15 PM 57.2 °F - 10.4 °F 16% 29.99 in 10.0 mi SW 20.7 mph 24.2 mph N/A   Clear
12:35 PM 59.0 °F - 10.4 °F 15% 29.97 in 10.0 mi SW 13.8 mph 23.0 mph N/A   Clear
12:55 PM 59.0 °F - 10.4 °F 15% 29.97 in 10.0 mi SW 16.1 mph 19.6 mph N/A   Clear
1:15 PM 59.0 °F - 10.4 °F 15% 29.96 in 10.0 mi WSW 10.4 mph 17.3 mph N/A   Clear
1:35 PM 60.8 °F - 8.6 °F 13% 29.95 in 10.0 mi WNW 8.1 mph 16.1 mph N/A   Clear
1:55 PM 60.8 °F - 8.6 °F 13% 29.95 in 10.0 mi NW 6.9 mph - N/A   Clear
2:15 PM 60.8 °F - 6.8 °F 12% 29.95 in 10.0 mi West 8.1 mph 16.1 mph N/A   Clear
2:35 PM 62.6 °F - 5.0 °F 10% 29.94 in 10.0 mi WNW 10.4 mph - N/A   Clear
2:55 PM 60.8 °F - 5.0 °F 11% 29.94 in 10.0 mi North 10.4 mph 17.3 mph N/A   Clear
3:15 PM 59.0 °F - 5.0 °F 12% 29.94 in 10.0 mi NW 9.2 mph - N/A   Clear
3:35 PM 59.0 °F - 5.0 °F 12% 29.94 in 10.0 mi NNW 6.9 mph - N/A   Clear
3:55 PM 59.0 °F - 5.0 °F 12% 29.94 in 10.0 mi North 8.1 mph - N/A   Clear
4:15 PM 59.0 °F - 5.0 °F 12% 29.95 in 10.0 mi NNE 5.8 mph - N/A   Clear
4:35 PM 59.0 °F - 5.0 °F 12% 29.94 in 10.0 mi NW 3.5 mph - N/A   Clear
4:55 PM 59.0 °F - 5.0 °F 12% 29.94 in 10.0 mi Calm Calm - N/A   Clear
5:15 PM 59.0 °F - 5.0 °F 12% 29.93 in 10.0 mi Calm Calm - N/A   Clear
5:35 PM 59.0 °F - 5.0 °F 12% 29.93 in 10.0 mi Calm Calm - N/A   Clear
5:55 PM 57.2 °F - 6.8 °F 13% 29.93 in 10.0 mi Calm Calm - N/A   Clear
6:15 PM 55.4 °F - 5.0 °F 13% 29.94 in 10.0 mi Calm Calm - N/A   Clear
6:35 PM 53.6 °F - 5.0 °F 14% 29.95 in 10.0 mi Calm Calm - N/A   Clear
6:55 PM 51.8 °F - 5.0 °F 15% 29.95 in 10.0 mi Calm Calm - N/A   Clear
7:15 PM 51.8 °F - 5.0 °F 15% 29.95 in 10.0 mi SE 3.5 mph - N/A   Clear
7:35 PM 42.8 °F 39.3 °F 12.2 °F 29% 29.94 in 10.0 mi SE 5.8 mph - N/A   Clear
7:55 PM 42.8 °F 38.6 °F 12.2 °F 29% 29.94 in 10.0 mi SE 6.9 mph - N/A   Clear
8:15 PM 41.0 °F 35.8 °F 12.2 °F 31% 29.94 in 10.0 mi SE 8.1 mph - N/A   Clear
8:35 PM 41.0 °F 35.2 °F 12.2 °F 31% 29.94 in 10.0 mi SE 9.2 mph - N/A   Clear
8:55 PM 41.0 °F 35.8 °F 12.2 °F 31% 29.93 in 10.0 mi SE 8.1 mph - N/A   Clear
9:15 PM 41.0 °F 34.7 °F 12.2 °F 31% 29.93 in 10.0 mi SE 10.4 mph - N/A   Clear
9:35 PM 42.8 °F 37.5 °F 12.2 °F 29% 29.93 in 10.0 mi SE 9.2 mph - N/A   Clear
9:55 PM 42.8 °F 37.5 °F 12.2 °F 29% 29.94 in 10.0 mi SSE 9.2 mph - N/A   Clear
10:15 PM 42.8 °F 37.0 °F 12.2 °F 29% 29.93 in 10.0 mi SSE 10.4 mph - N/A   Clear
10:35 PM 42.8 °F 36.2 °F 12.2 °F 29% 29.92 in 10.0 mi SE 12.7 mph - N/A   Clear
10:55 PM 44.6 °F 38.8 °F 12.2 °F 27% 29.91 in 10.0 mi SE 11.5 mph - N/A   Clear
11:15 PM 44.6 °F 39.2 °F 10.4 °F 25% 29.91 in 10.0 mi SSE 10.4 mph - N/A   Clear
11:35 PM 42.8 °F 38.0 °F 10.4 °F 27% 29.91 in 10.0 mi SE 8.1 mph - N/A   Clear
11:55 PM 41.0 °F 34.7 °F 12.2 °F 31% 29.90 in 10.0 mi SSE 10.4 mph - N/A   Clear